Waarnemingen

Advertentie
Mijn weer
Ponferrada, Spanje (8053): temperatuur & dauwpunt: 13.11.2017 20:00:00 - 19.11.2017 20:00:00 (CET)Ponferrada, Spanje (8053): windsnelheid: 13.11.2017 20:00:00 - 19.11.2017 20:00:00 (CET)Ponferrada, Spanje (8053): windrichting: 13.11.2017 20:00:00 - 19.11.2017 20:00:00 (CET)Ponferrada, Spanje (8053): luchtdruk: 13.11.2017 20:00:00 - 19.11.2017 20:00:00 (CET)Ponferrada, Spanje (8053): zicht: 13.11.2017 20:00:00 - 19.11.2017 20:00:00 (CET)Ponferrada, Spanje (8053): neerslag: 13.11.2017 20:00:00 - 19.11.2017 20:00:00 (CET)
Datum & Tijd tt [°C] td [°C] ff [km/u] ff [kn] dd ppp [hPa] vv [km] rr [mm]
19.11.2017 20:00:00 7,1 0,5 0 0 N 1024,8 8 0,0
19.11.2017 19:00:00 9,7 1,1 2 1 WNW 1023,5 7 -
19.11.2017 18:00:00 13,7 2,3 2 1 OZO 1022,0 9 0,0
19.11.2017 17:00:00 17,5 1,9 4 2 NW 1021,0 6 0,0
19.11.2017 16:00:00 16,9 1,7 2 1 W 1021,0 7 -
19.11.2017 15:00:00 15,5 2,3 4 2 W 1021,9 7 0,0
19.11.2017 14:00:00 13,2 2,1 2 1 ZW 1023,2 8 0,0
19.11.2017 13:00:00 10,3 1,9 4 2 W 1025,0 15 -
19.11.2017 12:00:00 7,6 1,4 4 2 WNW 1026,5 7 0,0
19.11.2017 11:00:00 5,0 0,6 4 2 WNW 1027,4 7 0,0
19.11.2017 10:00:00 3,5 0,4 0 0 N 1027,5 12 -
19.11.2017 09:00:00 -0,6 -1,4 2 1 OZO 1028,2 9 0,0
19.11.2017 08:00:00 -0,7 -1,8 2 1 OZO 1027,5 9 0,0
19.11.2017 07:00:00 -0,3 -1,7 2 1 N 1027,2 12 -
19.11.2017 06:00:00 0,2 -1,2 2 1 ONO 1026,7 9 0,0
19.11.2017 05:00:00 1,2 -1,0 2 1 ZO 1026,4 9 0,0
19.11.2017 04:00:00 1,2 -0,7 4 2 ZO 1026,5 9 -
19.11.2017 03:00:00 2,1 -0,7 2 1 NW 1025,9 9 0,0
19.11.2017 02:00:00 2,2 -0,4 2 1 ZZO 1025,7 9 0,0
19.11.2017 01:00:00 2,7 -0,2 2 1 Z 1025,5 8 -
19.11.2017 00:00:00 3,2 -0,1 2 1 ZO 1025,3 8 0,0
18.11.2017 23:00:00 4,2 0,2 2 1 OZO 1024,9 8 0,0
18.11.2017 22:00:00 5,1 0,3 2 1 OZO 1024,4 9 -
18.11.2017 21:00:00 6,4 1,1 0 0 N 1023,8 6 0,0
18.11.2017 20:00:00 8,0 1,4 2 1 W 1023,1 8 0,0
18.11.2017 19:00:00 10,4 1,7 2 1 ZZO 1022,0 9 -
18.11.2017 18:00:00 14,6 3,1 2 1 ONO 1020,4 9 0,0
18.11.2017 17:00:00 18,3 2,6 4 2 WNW 1019,6 - 0,0
18.11.2017 16:00:00 17,9 2,2 2 1 WNW 1019,5 5 -
18.11.2017 15:00:00 16,4 2,8 4 2 W 1020,5 8 0,0
18.11.2017 14:00:00 13,8 2,7 4 2 WZW 1021,9 8 0,0
18.11.2017 13:00:00 11,0 2,3 4 2 W 1023,5 20 -
18.11.2017 12:00:00 8,0 2,4 4 2 W 1025,3 7 0,0
18.11.2017 11:00:00 5,5 1,6 4 2 W 1026,2 6 0,0
18.11.2017 10:00:00 3,8 0,8 2 1 ZZO 1026,7 9 -
18.11.2017 09:00:00 0,6 -0,6 2 1 O 1026,8 9 0,0
18.11.2017 08:00:00 0,8 -0,4 4 2 ZZO 1026,0 9 0,0
18.11.2017 07:00:00 1,4 -0,1 2 1 NNO 1026,0 12 -
18.11.2017 06:00:00 1,1 0,1 4 2 ZZO 1025,7 9 0,0
18.11.2017 05:00:00 2,1 0,6 2 1 WNW 1025,7 8 0,0
18.11.2017 04:00:00 1,9 0,3 2 1 OZO 1025,8 9 -
18.11.2017 03:00:00 2,4 0,8 2 1 O 1025,5 10 0,0
18.11.2017 02:00:00 3,2 0,8 0 0 N 1025,4 8 0,0
18.11.2017 01:00:00 3,9 1,6 4 2 ZO 1025,2 9 -
18.11.2017 00:00:00 4,4 1,2 2 1 ONO 1025,0 8 0,0
17.11.2017 23:00:00 5,2 1,9 2 1 WZW 1024,6 9 0,0
17.11.2017 22:00:00 6,3 1,8 2 1 OZO 1023,8 7 -
17.11.2017 21:00:00 7,6 2,1 2 1 O 1023,2 - 0,0
17.11.2017 20:00:00 9,2 2,1 2 1 NNO 1022,5 7 0,0
17.11.2017 19:00:00 10,6 2,7 2 1 ZO 1021,9 10 -
17.11.2017 18:00:00 13,2 3,3 2 1 ONO 1020,9 9 0,0
17.11.2017 17:00:00 15,3 2,8 2 1 WZW 1020,3 11 0,0
17.11.2017 16:00:00 15,9 2,7 4 2 WNW 1020,1 6 -
17.11.2017 15:00:00 15,1 2,3 4 2 WZW 1020,9 12 0,0
17.11.2017 14:00:00 13,9 3,1 4 2 ZZW 1021,8 11 0,0
17.11.2017 13:00:00 10,8 2,9 4 2 W 1023,5 15 -
17.11.2017 12:00:00 8,9 2,7 5 3 NW 1024,9 10 0,0
17.11.2017 11:00:00 6,7 1,6 2 1 WNW 1025,9 10 0,0
17.11.2017 10:00:00 3,8 0,7 4 2 W 1026,6 12 -
17.11.2017 09:00:00 1,2 0,3 0 0 N 1027,1 8 0,0
17.11.2017 08:00:00 0,8 -0,4 2 1 NNW 1026,8 10 0,0
17.11.2017 07:00:00 0,9 -0,6 4 2 OZO 1026,3 11 -
17.11.2017 06:00:00 1,4 -0,2 2 1 ONO 1026,1 11 0,0
17.11.2017 05:00:00 2,0 0,2 2 1 ONO 1025,9 12 0,0
17.11.2017 04:00:00 2,6 0,8 2 1 OZO 1025,7 10 -
17.11.2017 03:00:00 3,0 0,9 2 1 N 1025,6 11 0,0
17.11.2017 02:00:00 3,4 0,8 2 1 ZO 1025,5 10 0,0
17.11.2017 01:00:00 4,1 1,0 0 0 N 1025,3 10 -
17.11.2017 00:00:00 4,8 1,1 2 1 O 1025,0 10 0,0
16.11.2017 23:00:00 5,9 1,4 2 1 W 1024,4 11 0,0
16.11.2017 22:00:00 6,9 2,0 2 1 O 1024,0 10 -
16.11.2017 21:00:00 7,8 1,6 2 1 O 1023,3 10 0,0
16.11.2017 20:00:00 9,2 1,6 0 0 N 1022,5 10 0,0
16.11.2017 19:00:00 11,7 2,2 2 1 O 1021,2 12 -
16.11.2017 18:00:00 16,1 3,5 2 1 O 1019,7 11 0,0
16.11.2017 17:00:00 18,8 1,7 2 1 W 1018,8 7 0,0
16.11.2017 16:00:00 18,0 1,5 4 2 WNW 1019,2 12 -
16.11.2017 15:00:00 17,0 2,6 2 1 W 1019,7 13 0,0
16.11.2017 14:00:00 14,5 2,7 2 1 W 1021,2 13 0,0
16.11.2017 13:00:00 11,3 2,6 4 2 W 1022,9 20 -
16.11.2017 12:00:00 8,9 2,7 5 3 W 1024,2 9 0,0
16.11.2017 11:00:00 6,3 1,8 4 2 NW 1025,3 9 0,0
16.11.2017 10:00:00 4,5 1,5 4 2 WNW 1025,6 10 -
16.11.2017 09:00:00 0,9 -0,1 4 2 ZO 1025,8 9 0,0
16.11.2017 08:00:00 0,7 -0,3 2 1 N 1025,2 10 0,0
16.11.2017 07:00:00 0,7 -0,6 0 0 N 1025,0 12 -
16.11.2017 06:00:00 1,2 -0,3 2 1 ONO 1024,4 12 0,0
16.11.2017 05:00:00 1,7 -0,1 2 1 NNW 1023,9 12 0,0
16.11.2017 04:00:00 2,3 0,4 2 1 N 1023,7 11 -
16.11.2017 03:00:00 2,7 0,4 2 1 OZO 1023,5 11 0,0
16.11.2017 02:00:00 3,2 0,4 2 1 ONO 1023,2 11 0,0
16.11.2017 01:00:00 4,0 0,9 2 1 OZO 1023,2 12 -
16.11.2017 00:00:00 4,9 1,0 2 1 O 1023,0 10 0,0
15.11.2017 23:00:00 5,5 1,2 2 1 ZZO 1022,6 11 0,0
15.11.2017 22:00:00 6,5 1,2 2 1 ONO 1022,0 10 -
15.11.2017 21:00:00 7,9 2,6 4 2 Z 1021,3 10 0,0
15.11.2017 20:00:00 9,5 1,4 2 1 NW 1020,5 7 0,0
15.11.2017 19:00:00 11,6 2,3 4 2 Z 1019,2 9 -
15.11.2017 18:00:00 16,2 3,3 2 1 O 1017,6 10 0,0
15.11.2017 17:00:00 19,6 2,4 0 0 N 1016,9 3,5 0,0
15.11.2017 16:00:00 18,5 1,0 4 2 NW 1017,2 8 -
15.11.2017 15:00:00 17,0 2,2 4 2 NO 1017,9 14 0,0
15.11.2017 14:00:00 14,6 2,5 4 2 W 1019,4 13 0,0
15.11.2017 13:00:00 11,9 2,9 2 1 ZZW 1021,0 20 -
15.11.2017 12:00:00 9,0 2,5 4 2 W 1022,7 11 0,0
15.11.2017 11:00:00 6,1 1,8 2 1 ZW 1023,7 9 0,0
15.11.2017 10:00:00 3,0 0,9 8 4 NW 1024,6 20 -
15.11.2017 09:00:00 1,0 0,0 2 1 ZO 1025,0 8 0,0
15.11.2017 08:00:00 0,4 -0,6 2 1 Z 1024,3 10 0,0
15.11.2017 07:00:00 1,0 -0,3 2 1 W 1024,0 15 -
15.11.2017 06:00:00 1,6 -0,2 2 1 NNW 1023,7 12 0,0
15.11.2017 05:00:00 1,4 -0,4 5 3 OZO 1023,6 12 0,0
15.11.2017 04:00:00 2,4 0,3 2 1 N 1023,4 12 -
15.11.2017 03:00:00 2,1 0,0 4 2 O 1023,8 12 0,0
15.11.2017 02:00:00 2,7 0,3 0 0 N 1023,4 11 0,0
15.11.2017 01:00:00 3,0 0,6 2 1 ZO 1023,3 11 -
15.11.2017 00:00:00 3,7 0,6 2 1 OZO 1023,3 12 0,0
14.11.2017 23:00:00 4,5 0,8 2 1 ZO 1023,5 11 0,0
14.11.2017 22:00:00 5,4 0,8 2 1 O 1023,2 11 -
14.11.2017 21:00:00 6,7 0,8 4 2 NNW 1022,6 7 0,0
14.11.2017 20:00:00 7,7 0,6 2 1 ZW 1022,4 12 0,0
14.11.2017 19:00:00 10,1 0,9 4 2 ZZO 1021,5 12 -
14.11.2017 18:00:00 13,7 1,3 2 1 NO 1020,6 12 0,0
14.11.2017 17:00:00 16,1 0,6 2 1 ZW 1019,6 12 0,0
14.11.2017 16:00:00 15,3 0,7 4 2 ZW 1020,1 8 -
14.11.2017 15:00:00 13,5 0,1 5 3 W 1021,3 16 0,0
14.11.2017 14:00:00 11,6 -0,3 5 3 W 1022,7 15 0,0
14.11.2017 13:00:00 10,1 0,7 5 3 WZW 1023,8 20 -
14.11.2017 12:00:00 7,3 0,9 4 2 ZW 1025,6 12 0,0
14.11.2017 11:00:00 4,5 0,6 4 2 WZW 1026,6 11 0,0
14.11.2017 10:00:00 2,5 -0,4 5 3 W 1027,3 20 -
14.11.2017 09:00:00 -0,2 -1,2 2 1 ONO 1028,0 10 0,0
14.11.2017 08:00:00 -0,5 -1,6 2 1 O 1027,6 10 0,0
14.11.2017 07:00:00 -0,1 -1,4 2 1 N 1027,2 20 -
14.11.2017 06:00:00 0,0 -1,4 2 1 ZO 1027,3 12 0,0
14.11.2017 05:00:00 0,4 -1,4 2 1 ONO 1027,1 12 0,0
14.11.2017 04:00:00 1,0 -0,5 2 1 WZW 1027,2 12 -
14.11.2017 03:00:00 1,4 -1,0 2 1 NO 1027,3 13 0,0
14.11.2017 02:00:00 1,8 -0,5 2 1 ZZO 1027,3 12 0,0
14.11.2017 01:00:00 2,3 -0,3 2 1 OZO 1027,3 12 -
14.11.2017 00:00:00 3,3 0,0 2 1 O 1027,0 11 0,0
13.11.2017 23:00:00 4,8 0,7 4 2 NNW 1026,4 9 0,0
13.11.2017 22:00:00 5,3 0,7 2 1 ZO 1026,3 13 -
13.11.2017 21:00:00 6,8 1,1 4 2 OZO 1025,7 14 0,0
13.11.2017 20:00:00 7,7 1,3 5 3 OZO 1025,3 15 0,0

tt = temperatuur
td = dauwpunt
ff = windsnelheid
dd = windrichting
ppp = luchtdruk
vv = zicht
rr = neerslag

Weerstations in de omgeving